When you browse on this site, cookies collect data to enhance your experience and personalize the content and advertising you see.
Visit our Privacy Policy to learn more. By continuing to use the site, you agree to this use of cookies and data.
  • En España
  • Lista de países
  • Para 7 días
  • Temperatura del agua
  • El tiempo en el mapa
  • Informadores
  • user-avatar
    Iniciar sesión

    Tiempo cada hora Gluhovo

    Hoy, 7 Junio, Domingo

    Tiempo Temperatura Precipitaciones Viento Presión Humedad
    00:00 +15°C° 0 mm 1 mps 740 mmHg 91%
    01:00 +15°C° 0 mm 1 mps 741 mmHg 92%
    02:00 +14°C° 0 mm 1 mps 741 mmHg 92%
    03:00 +15°C° 0 mm 1 mps 741 mmHg 92%
    04:00 +15°C° 0 mm 1 mps 742 mmHg 92%
    05:00 +14°C° 0 mm 0 mps 742 mmHg 91%
    06:00 +18°C° 0 mm 1 mps 742 mmHg 88%
    07:00 +19°C° 0 mm 1 mps 742 mmHg 84%
    08:00 +21°C° 0 mm 1 mps 743 mmHg 81%
    09:00 +22°C° 0 mm 1 mps 743 mmHg 76%
    10:00 +23°C° 0 mm 2 mps 743 mmHg 72%
    11:00 +24°C° 0 mm 2 mps 743 mmHg 67%
    12:00 +25°C° 0 mm 2 mps 743 mmHg 65%
    13:00 +25°C° 0 mm 2 mps 743 mmHg 63%
    14:00 +26°C° 0 mm 2 mps 743 mmHg 62%
    15:00 +26°C° 0 mm 2 mps 743 mmHg 66%
    16:00 +25°C° 0 mm 2 mps 742 mmHg 70%
    17:00 +25°C° 0 mm 2 mps 742 mmHg 74%
    18:00 +24°C° 0 mm 2 mps 742 mmHg 78%
    19:00 +21°C° 0 mm 2 mps 742 mmHg 81%
    20:00 +20°C° 0 mm 2 mps 742 mmHg 85%
    21:00 +19°C° 0 mm 2 mps 742 mmHg 87%
    22:00 +19°C° 0 mm 2 mps 742 mmHg 89%
    23:00 +18°C° 0 mm 2 mps 742 mmHg 91%

    Mañana, 8 Junio, Lunes

    Tiempo Temperatura Precipitaciones Viento Presión Humedad
    00:00 +18°C° 0 mm 2 mps 742 mmHg 93%
    01:00 +18°C° 0 mm 2 mps 742 mmHg 94%
    02:00 +17°C° 0 mm 2 mps 742 mmHg 95%
    03:00 +18°C° 0 mm 2 mps 742 mmHg 95%
    04:00 +18°C° 0 mm 2 mps 742 mmHg 95%
    05:00 +18°C° 0 mm 2 mps 742 mmHg 94%
    06:00 +19°C° 0 mm 3 mps 742 mmHg 91%
    07:00 +21°C° 0 mm 3 mps 742 mmHg 88%
    08:00 +22°C° 0 mm 3 mps 743 mmHg 84%
    09:00 +23°C° 0 mm 4 mps 743 mmHg 80%
    10:00 +25°C° 0 mm 4 mps 743 mmHg 76%
    11:00 +26°C° 0 mm 4 mps 743 mmHg 72%
    12:00 +26°C° 0 mm 4 mps 743 mmHg 70%
    13:00 +27°C° 0 mm 4 mps 742 mmHg 68%
    14:00 +27°C° 0 mm 4 mps 742 mmHg 67%
    15:00 +27°C° 0 mm 3 mps 742 mmHg 69%
    16:00 +27°C° 0 mm 3 mps 742 mmHg 71%
    17:00 +27°C° 0 mm 2 mps 742 mmHg 74%
    18:00 +25°C° 0 mm 2 mps 742 mmHg 78%
    19:00 +24°C° 0 mm 2 mps 742 mmHg 81%
    20:00 +21°C° 0 mm 2 mps 742 mmHg 85%
    21:00 +20°C° 0 mm 2 mps 742 mmHg 87%
    22:00 +20°C° 0 mm 2 mps 742 mmHg 89%
    23:00 +19°C° 0 mm 2 mps 742 mmHg 91%

    Pasado mañana, 9 Junio, Martes

    Tiempo Temperatura Precipitaciones Viento Presión Humedad
    00:00 +19°C° 0 mm 2 mps 742 mmHg 92%
    01:00 +18°C° 0 mm 2 mps 742 mmHg 93%
    02:00 +18°C° 0 mm 2 mps 743 mmHg 94%
    03:00 +18°C° 0 mm 2 mps 743 mmHg 94%
    04:00 +19°C° 0 mm 2 mps 743 mmHg 94%
    05:00 +19°C° 0 mm 2 mps 743 mmHg 94%
    06:00 +20°C° 0 mm 2 mps 743 mmHg 90%
    07:00 +23°C° 0 mm 2 mps 743 mmHg 87%
    08:00 +24°C° 0 mm 3 mps 743 mmHg 83%
    09:00 +25°C° 0 mm 3 mps 743 mmHg 78%
    10:00 +26°C° 0 mm 3 mps 743 mmHg 74%
    11:00 +27°C° 0 mm 3 mps 743 mmHg 70%
    12:00 +27°C° 0.2 mm 3 mps 743 mmHg 69%
    13:00 +28°C° 0.2 mm 3 mps 743 mmHg 68%
    14:00 +28°C° 0.2 mm 3 mps 743 mmHg 67%
    15:00 +28°C° 0.1 mm 2 mps 743 mmHg 68%
    16:00 +28°C° 0.1 mm 2 mps 743 mmHg 70%
    17:00 +28°C° 0.1 mm 1 mps 742 mmHg 71%
    18:00 +26°C° 0.1 mm 1 mps 743 mmHg 75%
    19:00 +25°C° 0.1 mm 1 mps 743 mmHg 79%
    20:00 +23°C° 0.1 mm 1 mps 743 mmHg 84%
    21:00 +22°C° 0 mm 1 mps 743 mmHg 86%
    22:00 +21°C° 0 mm 1 mps 743 mmHg 88%
    23:00 +21°C° 0 mm 1 mps 743 mmHg 90%

    10 Junio, Miércoles

    Tiempo Temperatura Precipitaciones Viento Presión Humedad
    00:00 +20°C° 0 mm 1 mps 743 mmHg 91%
    01:00 +20°C° 0 mm 1 mps 743 mmHg 92%
    02:00 +19°C° 0 mm 2 mps 743 mmHg 92%
    03:00 +19°C° 0 mm 2 mps 743 mmHg 93%
    04:00 +19°C° 0 mm 2 mps 743 mmHg 93%
    05:00 +19°C° 0 mm 2 mps 743 mmHg 93%
    06:00 +21°C° 0.1 mm 2 mps 743 mmHg 90%
    07:00 +23°C° 0.1 mm 2 mps 743 mmHg 87%
    08:00 +25°C° 0.1 mm 2 mps 743 mmHg 84%
    09:00 +26°C° 0.9 mm 2 mps 743 mmHg 79%
    10:00 +27°C° 0.9 mm 2 mps 743 mmHg 74%
    11:00 +28°C° 0.9 mm 2 mps 743 mmHg 70%
    12:00 +28°C° 0.1 mm 2 mps 743 mmHg 68%
    13:00 +28°C° 0.1 mm 2 mps 742 mmHg 67%
    14:00 +29°C° 0.1 mm 2 mps 742 mmHg 66%
    15:00 +28°C° 0.2 mm 2 mps 742 mmHg 69%
    16:00 +28°C° 0.2 mm 2 mps 742 mmHg 73%
    17:00 +28°C° 0.2 mm 2 mps 742 mmHg 76%
    18:00 +26°C° 0.3 mm 2 mps 742 mmHg 80%
    19:00 +25°C° 0.3 mm 2 mps 742 mmHg 84%
    20:00 +23°C° 0.3 mm 2 mps 742 mmHg 87%
    21:00 +21°C° 0 mm 2 mps 742 mmHg 90%
    22:00 +21°C° 0 mm 2 mps 742 mmHg 92%
    23:00 +20°C° 0 mm 3 mps 742 mmHg 94%

    11 Junio, Jueves

    Tiempo Temperatura Precipitaciones Viento Presión Humedad
    00:00 +20°C° 0 mm 2 mps 742 mmHg 95%
    01:00 +19°C° 0 mm 2 mps 742 mmHg 95%
    02:00 +19°C° 0 mm 2 mps 742 mmHg 96%
    03:00 +19°C° 0 mm 2 mps 742 mmHg 96%
    04:00 +19°C° 0 mm 2 mps 742 mmHg 96%
    05:00 +19°C° 0 mm 2 mps 742 mmHg 97%
    06:00 +21°C° 0 mm 3 mps 742 mmHg 94%
    07:00 +22°C° 0 mm 3 mps 742 mmHg 91%
    08:00 +24°C° 0 mm 3 mps 743 mmHg 89%
    09:00 +25°C° 0.4 mm 3 mps 743 mmHg 85%
    10:00 +26°C° 0.4 mm 4 mps 743 mmHg 80%
    11:00 +27°C° 0.4 mm 4 mps 743 mmHg 76%
    12:00 +28°C° 0.4 mm 4 mps 742 mmHg 75%
    13:00 +28°C° 0.4 mm 4 mps 742 mmHg 73%
    14:00 +28°C° 0.4 mm 3 mps 742 mmHg 71%
    15:00 +28°C° 0.1 mm 3 mps 742 mmHg 73%
    16:00 +28°C° 0.1 mm 3 mps 742 mmHg 75%
    17:00 +28°C° 0.1 mm 2 mps 741 mmHg 76%
    18:00 +26°C° 0 mm 3 mps 741 mmHg 80%
    19:00 +25°C° 0 mm 3 mps 741 mmHg 84%
    20:00 +22°C° 0 mm 3 mps 741 mmHg 87%
    21:00 +22°C° 0 mm 3 mps 741 mmHg 89%
    22:00 +21°C° 0 mm 3 mps 741 mmHg 91%
    23:00 +20°C° 0 mm 3 mps 742 mmHg 93%

    12 Junio, Viernes

    Tiempo Temperatura Precipitaciones Viento Presión Humedad
    00:00 +20°C° 0 mm 3 mps 741 mmHg 94%
    01:00 +19°C° 0 mm 2 mps 741 mmHg 95%
    02:00 +19°C° 0 mm 2 mps 741 mmHg 96%
    03:00 +19°C° 0 mm 2 mps 741 mmHg 95%
    04:00 +19°C° 0 mm 3 mps 741 mmHg 95%
    05:00 +19°C° 0 mm 3 mps 741 mmHg 95%
    06:00 +21°C° 0 mm 3 mps 741 mmHg 92%
    07:00 +22°C° 0 mm 3 mps 741 mmHg 89%
    08:00 +23°C° 0 mm 4 mps 741 mmHg 86%
    09:00 +25°C° 0 mm 4 mps 741 mmHg 82%
    10:00 +27°C° 0 mm 4 mps 741 mmHg 79%
    11:00 +28°C° 0 mm 3 mps 741 mmHg 75%
    12:00 +28°C° 0 mm 3 mps 741 mmHg 72%
    13:00 +29°C° 0 mm 3 mps 741 mmHg 70%
    14:00 +29°C° 0 mm 3 mps 741 mmHg 67%
    15:00 +29°C° 0.1 mm 2 mps 741 mmHg 70%
    16:00 +29°C° 0.1 mm 2 mps 741 mmHg 72%
    17:00 +29°C° 0.1 mm 2 mps 741 mmHg 75%
    18:00 +27°C° 0.1 mm 2 mps 741 mmHg 79%
    19:00 +26°C° 0.1 mm 2 mps 741 mmHg 82%
    20:00 +24°C° 0.1 mm 3 mps 741 mmHg 86%
    21:00 +22°C° 0 mm 3 mps 741 mmHg 88%
    22:00 +21°C° 0 mm 3 mps 741 mmHg 90%
    23:00 +21°C° 0 mm 3 mps 741 mmHg 92%
    Mostrar más